Location: Unspecified
(48.8656°N, 0.0000°E)
Time: 01:08:32
(UTC+00:00)

SR - Pass Details

Date: 28 June 2019
Orbit: 580 x 876 km, 66.7° (Epoch: 22 July)

Event Time Altitude Azimuth Distance (km) Brightness Sun altitude
Rises 10:10:14 0° 326° (NW) 3,000 ? 56.1°
Reaches altitude 10° 10:12:29 10° 329° (NNW) 2,126 ? 56.4°
Maximum altitude 10:17:18 63° 51° (NE) 809 ? 57.0°
Drops below altitude 10° 10:22:31 10° 133° (SE) 2,310 ? 57.6°
Sets 10:25:03 0° 136° (SE) 3,281 ? 57.9°
